Time,TemperatureF,DewpointF,PressureIn,WindDirection,WindDirectionDegrees,WindSpeedMPH,WindSpeedGustMPH,Humidity,HourlyPrecipIn,Conditions,Clouds,dailyrainin,SoftwareType,DateUTC
2013-02-09 00:02:00,71.8,62.3,30.02,NNE,22,3.8,3.8,72,0.00,CLR,,0.00,WeatherDisplay:10.37,2013-02-08 13:02:00,
2013-02-09 00:07:00,71.8,62.7,30.02,NW,315,2.3,2.3,73,0.00,CLR,,0.00,WeatherDisplay:10.37,2013-02-08 13:07:00,
2013-02-09 00:12:00,71.8,62.7,30.02,East,90,3.5,3.5,73,0.00,CLR,,0.00,WeatherDisplay:10.37,2013-02-08 13:12:00,
2013-02-09 00:17:00,71.4,62.3,30.02,WNW,292,2.3,2.3,73,0.00,CLR,,0.00,WeatherDisplay:10.37,2013-02-08 13:17:00,
2013-02-09 00:22:00,71.4,62.7,30.02,WNW,292,0.0,0.0,74,0.00,CLR,,0.00,WeatherDisplay:10.37,2013-02-08 13:22:00,
2013-02-09 00:27:00,71.4,62.3,30.02,NNW,338,0.0,0.0,73,0.00,CLR,,0.00,WeatherDisplay:10.37,2013-02-08 13:27:00,
2013-02-09 00:32:00,71.2,62.1,30.02,NW,315,0.0,0.0,73,0.00,CLR,,0.00,WeatherDisplay:10.37,2013-02-08 13:32:00,
2013-02-09 00:37:00,71.2,62.5,30.02,NW,315,1.6,1.6,74,0.00,CLR,,0.00,WeatherDisplay:10.37,2013-02-08 13:37:00,
2013-02-09 00:42:00,71.1,62.4,30.02,ENE,68,0.0,0.0,74,0.00,CLR,,0.00,WeatherDisplay:10.37,2013-02-08 13:42:00,
2013-02-09 00:47:00,70.9,62.2,30.02,North,0,1.1,1.1,74,0.00,CLR,,0.00,WeatherDisplay:10.37,2013-02-08 13:47:00,
2013-02-09 00:52:00,70.9,62.2,30.02,NE,45,3.5,3.5,74,0.00,CLR,,0.00,WeatherDisplay:10.37,2013-02-08 13:52:00,
2013-02-09 00:57:00,70.7,62.4,30.01,North,0,3.6,3.6,75,0.00,CLR,,0.00,WeatherDisplay:10.37,2013-02-08 13:57:00,
2013-02-09 01:02:00,70.5,62.2,30.01,NNW,338,1.1,1.1,75,0.00,CLR,,0.00,WeatherDisplay:10.37,2013-02-08 14:02:00,
2013-02-09 01:07:00,70.3,62.0,30.01,NNW,338,0.0,0.0,75,0.00,CLR,,0.00,WeatherDisplay:10.37,2013-02-08 14:07:00,
2013-02-09 01:12:00,70.3,62.0,30.01,NNE,22,0.0,0.0,75,0.00,CLR,,0.00,WeatherDisplay:10.37,2013-02-08 14:12:00,
2013-02-09 01:17:00,70.3,62.0,30.01,NW,315,0.0,0.0,75,0.00,CLR,,0.00,WeatherDisplay:10.37,2013-02-08 14:17:00,
2013-02-09 01:22:00,70.2,61.9,30.01,West,270,1.1,0.0,75,0.00,CLR,,0.00,WeatherDisplay:10.37,2013-02-08 14:22:00,
2013-02-09 01:27:00,70.0,61.7,30.01,West,270,0.0,0.0,75,0.00,CLR,,0.00,WeatherDisplay:10.37,2013-02-08 14:27:00,
2013-02-09 01:32:00,69.8,61.9,30.01,WSW,248,0.0,0.0,76,0.00,CLR,,0.00,WeatherDisplay:10.37,2013-02-08 14:32:00,
2013-02-09 01:37:00,69.6,61.7,30.01,SSW,202,0.0,0.0,76,0.00,CLR,,0.00,WeatherDisplay:10.37,2013-02-08 14:37:00,
2013-02-09 01:42:00,69.6,61.7,30.00,SW,225,1.1,1.1,76,0.00,CLR,,0.00,WeatherDisplay:10.37,2013-02-08 14:42:00,
2013-02-09 01:47:00,69.6,61.7,30.00,South,180,0.0,0.0,76,0.00,CLR,,0.00,WeatherDisplay:10.37,2013-02-08 14:47:00,
2013-02-09 01:52:00,69.4,61.5,30.00,West,270,1.1,1.1,76,0.00,CLR,,0.00,WeatherDisplay:10.37,2013-02-08 14:52:00,
2013-02-09 01:57:00,69.4,61.9,30.00,WNW,292,1.1,1.1,77,0.00,CLR,,0.00,WeatherDisplay:10.37,2013-02-08 14:57:00,
2013-02-09 02:02:00,69.1,61.6,30.00,North,0,0.0,0.0,77,0.00,CLR,,0.00,WeatherDisplay:10.37,2013-02-08 15:02:00,
2013-02-09 02:07:00,68.9,61.4,30.00,NNE,22,0.0,0.0,77,0.00,CLR,,0.00,WeatherDisplay:10.37,2013-02-08 15:07:00,
2013-02-09 02:12:00,68.7,61.2,30.00,NE,45,1.1,1.1,77,0.00,CLR,,0.00,WeatherDisplay:10.37,2013-02-08 15:12:00,
2013-02-09 02:17:00,68.7,60.8,30.00,ENE,68,0.0,0.0,76,0.00,CLR,,0.00,WeatherDisplay:10.37,2013-02-08 15:17:00,
2013-02-09 02:22:00,68.5,60.7,30.00,ESE,112,0.0,0.1,76,0.00,CLR,,0.00,WeatherDisplay:10.37,2013-02-08 15:22:00,
2013-02-09 02:27:00,68.5,61.0,30.00,SE,135,0.0,0.0,77,0.00,CLR,,0.00,WeatherDisplay:10.37,2013-02-08 15:27:00,
2013-02-09 02:32:00,68.4,60.9,30.00,NNW,338,0.0,0.0,77,0.00,CLR,,0.00,WeatherDisplay:10.37,2013-02-08 15:32:00,
2013-02-09 02:37:00,68.2,60.7,30.00,ENE,68,0.0,0.0,77,0.00,CLR,,0.00,WeatherDisplay:10.37,2013-02-08 15:37:00,
2013-02-09 02:42:00,67.8,60.3,30.00,WNW,292,0.0,0.0,77,0.00,CLR,,0.00,WeatherDisplay:10.37,2013-02-08 15:42:00,
2013-02-09 02:47:00,67.8,60.7,30.00,WSW,248,2.3,0.0,78,0.00,CLR,,0.00,WeatherDisplay:10.37,2013-02-08 15:47:00,
2013-02-09 02:52:00,67.6,60.5,29.99,West,270,0.0,0.0,78,0.00,CLR,,0.00,WeatherDisplay:10.37,2013-02-08 15:52:00,
2013-02-09 02:57:00,67.6,60.5,29.99,WSW,248,1.1,1.1,78,0.00,CLR,,0.00,WeatherDisplay:10.37,2013-02-08 15:57:00,
2013-02-09 03:02:00,67.6,60.5,29.99,WSW,248,0.0,0.0,78,0.00,CLR,,0.00,WeatherDisplay:10.37,2013-02-08 16:02:00,
2013-02-09 03:07:00,67.3,60.2,29.99,WNW,292,0.0,0.0,78,0.00,CLR,,0.00,WeatherDisplay:10.37,2013-02-08 16:07:00,
2013-02-09 03:12:00,67.3,60.2,29.99,NW,315,0.0,0.0,78,0.00,CLR,,0.00,WeatherDisplay:10.37,2013-02-08 16:12:00,
2013-02-09 03:17:00,67.1,60.0,29.99,West,270,0.0,0.1,78,0.00,CLR,,0.00,WeatherDisplay:10.37,2013-02-08 16:17:00,
2013-02-09 03:22:00,66.9,59.8,29.98,WNW,292,0.0,0.0,78,0.00,CLR,,0.00,WeatherDisplay:10.37,2013-02-08 16:22:00,
2013-02-09 03:28:00,66.9,59.8,29.98,WNW,292,0.0,0.0,78,0.00,CLR,,0.00,WeatherDisplay:10.37,2013-02-08 16:28:00,
2013-02-09 03:33:00,66.7,59.7,29.98,West,270,0.0,0.0,78,0.00,CLR,,0.00,WeatherDisplay:10.37,2013-02-08 16:33:00,
2013-02-09 03:38:00,66.7,59.7,29.98,WNW,292,0.0,0.0,78,0.00,CLR,,0.00,WeatherDisplay:10.37,2013-02-08 16:38:00,
2013-02-09 03:43:00,66.6,59.8,29.98,NW,315,0.0,0.0,79,0.00,CLR,,0.00,WeatherDisplay:10.37,2013-02-08 16:43:00,
2013-02-09 03:48:00,66.6,59.8,29.98,WSW,248,1.1,1.1,79,0.00,CLR,,0.00,WeatherDisplay:10.37,2013-02-08 16:48:00,
2013-02-09 03:53:00,66.4,60.0,29.98,West,270,0.0,0.0,80,0.00,CLR,,0.00,WeatherDisplay:10.37,2013-02-08 16:53:00,
2013-02-09 03:58:00,66.4,60.0,29.98,WNW,292,0.0,0.0,80,0.00,CLR,,0.00,WeatherDisplay:10.37,2013-02-08 16:58:00,
2013-02-09 04:03:00,66.2,59.8,29.98,West,270,0.7,0.0,80,0.00,CLR,,0.00,WeatherDisplay:10.37,2013-02-08 17:03:00,
2013-02-09 04:08:00,66.2,59.8,29.98,West,270,1.1,1.1,80,0.00,CLR,,0.00,WeatherDisplay:10.37,2013-02-08 17:08:00,
2013-02-09 04:13:00,66.0,59.7,29.98,NW,315,1.1,1.1,80,0.00,CLR,,0.00,WeatherDisplay:10.37,2013-02-08 17:13:00,
2013-02-09 04:18:00,66.0,59.7,29.98,West,270,1.1,1.1,80,0.00,CLR,,0.00,WeatherDisplay:10.37,2013-02-08 17:18:00,
2013-02-09 04:23:00,66.0,60.0,29.99,WSW,248,1.1,1.1,81,0.00,CLR,,0.00,WeatherDisplay:10.37,2013-02-08 17:23:00,
2013-02-09 04:28:00,66.0,60.0,29.99,West,270,1.1,0.0,81,0.00,CLR,,0.00,WeatherDisplay:10.37,2013-02-08 17:28:00,
2013-02-09 04:33:00,66.0,60.0,29.99,WNW,292,0.7,0.0,81,0.00,CLR,,0.00,WeatherDisplay:10.37,2013-02-08 17:33:00,
2013-02-09 04:38:00,65.8,59.8,29.99,NNW,338,1.1,0.0,81,0.00,CLR,,0.00,WeatherDisplay:10.37,2013-02-08 17:38:00,
2013-02-09 04:43:00,65.8,59.8,29.99,WNW,292,1.1,1.1,81,0.00,CLR,,0.00,WeatherDisplay:10.37,2013-02-08 17:43:00,
2013-02-09 04:48:00,65.5,59.5,29.99,West,270,1.3,1.3,81,0.00,CLR,,0.00,WeatherDisplay:10.37,2013-02-08 17:48:00,
2013-02-09 04:53:00,65.5,59.5,29.99,WSW,249,1.1,0.0,81,0.00,CLR,,0.00,WeatherDisplay:10.37,2013-02-08 17:53:00,
2013-02-09 04:58:00,65.5,59.8,29.99,WSW,248,2.3,2.3,82,0.00,CLR,,0.00,WeatherDisplay:10.37,2013-02-08 17:58:00,
2013-02-09 05:03:00,65.5,59.8,29.99,West,270,0.0,0.0,82,0.00,CLR,,0.00,WeatherDisplay:10.37,2013-02-08 18:03:00,
2013-02-09 05:08:00,65.5,59.5,29.99,WSW,248,0.0,0.0,81,0.00,CLR,,0.00,WeatherDisplay:10.37,2013-02-08 18:08:00,
2013-02-09 05:13:00,65.3,59.3,29.99,WSW,248,0.0,0.0,81,0.00,CLR,,0.00,WeatherDisplay:10.37,2013-02-08 18:13:00,
2013-02-09 05:18:00,65.3,59.3,29.99,West,270,1.1,1.1,81,0.00,CLR,,0.00,WeatherDisplay:10.37,2013-02-08 18:18:00,
2013-02-09 05:23:00,65.1,59.1,29.99,WSW,248,2.3,2.3,81,0.00,CLR,,0.00,WeatherDisplay:10.37,2013-02-08 18:23:00,
2013-02-09 05:28:00,65.1,59.1,29.99,NNE,22,1.1,1.1,81,0.00,CLR,,0.00,WeatherDisplay:10.37,2013-02-08 18:28:00,
2013-02-09 05:33:00,65.1,59.1,29.99,NNE,22,0.0,0.0,81,0.00,CLR,,0.00,WeatherDisplay:10.37,2013-02-08 18:33:00,
2013-02-09 05:38:00,64.9,59.0,29.99,NNW,338,0.0,0.0,81,0.00,CLR,,0.00,WeatherDisplay:10.37,2013-02-08 18:38:00,
2013-02-09 05:43:00,64.8,58.8,29.99,SSE,158,0.0,0.0,81,0.00,CLR,,0.00,WeatherDisplay:10.37,2013-02-08 18:43:00,
2013-02-09 05:48:00,64.6,58.6,30.00,ESE,112,1.1,1.1,81,0.00,CLR,,0.00,WeatherDisplay:10.37,2013-02-08 18:48:00,
2013-02-09 05:53:00,64.6,58.6,30.00,North,0,0.0,0.2,81,0.00,CLR,,0.00,WeatherDisplay:10.37,2013-02-08 18:53:00,
2013-02-09 05:58:00,64.2,58.3,30.00,North,0,0.0,0.0,81,0.00,CLR,,0.00,WeatherDisplay:10.37,2013-02-08 18:58:00,
2013-02-09 06:03:00,64.2,58.3,30.00,NNE,22,0.0,0.0,81,0.00,CLR,,0.00,WeatherDisplay:10.37,2013-02-08 19:03:00,
2013-02-09 06:08:00,64.0,58.1,30.00,SSW,202,0.0,0.0,81,0.00,CLR,,0.00,WeatherDisplay:10.37,2013-02-08 19:08:00,
2013-02-09 06:13:00,64.0,58.1,30.00,SSW,202,0.0,0.0,81,0.00,CLR,,0.00,WeatherDisplay:10.37,2013-02-08 19:13:00,
2013-02-09 06:18:00,64.0,58.1,30.00,SSE,158,0.0,0.0,81,0.00,CLR,,0.00,WeatherDisplay:10.37,2013-02-08 19:18:00,
2013-02-09 06:23:00,63.7,57.7,30.00,ENE,68,0.0,0.0,81,0.00,CLR,,0.00,WeatherDisplay:10.37,2013-02-08 19:23:00,
2013-02-09 06:28:00,63.5,57.6,30.00,ENE,68,1.1,0.0,81,0.00,CLR,,0.00,WeatherDisplay:10.37,2013-02-08 19:28:00,
2013-02-09 06:33:00,63.5,57.6,30.00,NE,45,0.0,0.0,81,0.00,CLR,,0.00,WeatherDisplay:10.37,2013-02-08 19:33:00,
2013-02-09 06:38:00,63.5,57.6,30.00,West,270,0.0,0.0,81,0.00,CLR,,0.00,WeatherDisplay:10.37,2013-02-08 19:38:00,
2013-02-09 06:43:00,63.5,57.9,30.00,WSW,248,1.1,1.1,82,0.00,CLR,,0.00,WeatherDisplay:10.37,2013-02-08 19:43:00,
2013-02-09 06:48:00,63.5,57.9,30.00,WSW,248,1.1,1.1,82,0.00,CLR,,0.00,WeatherDisplay:10.37,2013-02-08 19:48:00,
2013-02-09 06:53:00,63.5,57.9,30.00,WNW,292,1.1,0.0,82,0.00,CLR,,0.00,WeatherDisplay:10.37,2013-02-08 19:53:00,
2013-02-09 06:58:00,63.5,57.9,30.00,West,270,0.0,0.0,82,0.00,CLR,,0.00,WeatherDisplay:10.37,2013-02-08 19:58:00,
2013-02-09 07:03:00,63.7,58.1,30.00,WSW,248,1.1,0.0,82,0.00,CLR,,0.00,WeatherDisplay:10.37,2013-02-08 20:03:00,
2013-02-09 07:08:00,63.7,58.4,30.01,WNW,292,1.1,0.0,83,0.00,CLR,,0.00,WeatherDisplay:10.37,2013-02-08 20:08:00,
2013-02-09 07:13:00,63.9,58.6,30.01,NE,45,0.0,0.0,83,0.00,CLR,,0.00,WeatherDisplay:10.37,2013-02-08 20:13:00,
2013-02-09 07:18:00,64.0,58.8,30.01,North,0,0.0,0.0,83,0.00,CLR,,0.00,WeatherDisplay:10.37,2013-02-08 20:18:00,
2013-02-09 07:23:00,64.0,59.1,30.01,NNE,22,0.0,0.0,84,0.00,CLR,,0.00,WeatherDisplay:10.37,2013-02-08 20:23:00,
2013-02-09 07:28:00,64.2,59.3,30.01,WSW,248,0.0,0.0,84,0.00,CLR,,0.00,WeatherDisplay:10.37,2013-02-08 20:28:00,
2013-02-09 07:33:00,64.2,59.6,30.01,SW,225,0.0,0.0,85,0.00,CLR,,0.00,WeatherDisplay:10.37,2013-02-08 20:33:00,
2013-02-09 07:38:00,64.8,60.1,30.01,SSE,158,1.1,1.1,85,0.00,CLR,,0.00,WeatherDisplay:10.37,2013-02-08 20:38:00,
2013-02-09 07:44:00,65.1,60.5,30.01,ESE,112,1.1,1.1,85,0.00,CLR,,0.00,WeatherDisplay:10.37,2013-02-08 20:44:00,
2013-02-09 07:49:00,65.5,60.8,30.02,East,90,0.0,0.0,85,0.00,CLR,,0.00,WeatherDisplay:10.37,2013-02-08 20:49:00,
2013-02-09 07:54:00,66.0,61.4,30.01,ESE,112,1.1,1.1,85,0.00,CLR,,0.00,WeatherDisplay:10.37,2013-02-08 20:54:00,
2013-02-09 07:59:00,66.4,61.7,30.02,SSW,202,0.0,0.0,85,0.00,CLR,,0.00,WeatherDisplay:10.37,2013-02-08 20:59:00,
2013-02-09 08:04:00,66.9,62.3,30.03,SW,225,2.5,2.5,85,0.00,CLR,,0.00,WeatherDisplay:10.37,2013-02-08 21:04:00,
2013-02-09 08:09:00,67.6,63.0,30.02,WSW,248,1.1,1.1,85,0.00,CLR,,0.00,WeatherDisplay:10.37,2013-02-08 21:09:00,
2013-02-09 08:14:00,67.8,63.1,30.02,SSE,158,0.0,0.0,85,0.00,CLR,,0.00,WeatherDisplay:10.37,2013-02-08 21:14:00,
2013-02-09 08:19:00,68.5,63.8,30.03,ESE,112,0.0,0.0,85,0.00,CLR,,0.00,WeatherDisplay:10.37,2013-02-08 21:19:00,
2013-02-09 08:24:00,69.4,64.4,30.03,ESE,112,4.6,4.6,84,0.00,CLR,,0.00,WeatherDisplay:10.37,2013-02-08 21:24:00,
2013-02-09 08:29:00,70.2,64.8,30.03,NNE,22,4.6,4.6,83,0.00,CLR,,0.00,WeatherDisplay:10.37,2013-02-08 21:29:00,
2013-02-09 08:34:00,70.7,64.6,30.03,North,0,4.6,4.6,81,0.00,CLR,,0.00,WeatherDisplay:10.37,2013-02-08 21:34:00,
2013-02-09 08:39:00,71.4,64.9,30.03,NNW,338,2.3,2.3,80,0.00,CLR,,0.00,WeatherDisplay:10.37,2013-02-08 21:39:00,
2013-02-09 08:44:00,72.0,65.1,30.03,NW,315,3.5,3.5,79,0.00,CLR,,0.00,WeatherDisplay:10.37,2013-02-08 21:44:00,
2013-02-09 08:49:00,72.5,64.9,30.02,NE,45,2.3,2.3,77,0.00,CLR,,0.00,WeatherDisplay:10.37,2013-02-08 21:49:00,
2013-02-09 08:54:00,73.0,65.0,30.03,NNE,22,5.8,5.8,76,0.00,CLR,,0.00,WeatherDisplay:10.37,2013-02-08 21:54:00,
2013-02-09 08:59:00,73.2,64.8,30.03,ENE,68,1.6,1.6,75,0.00,CLR,,0.00,WeatherDisplay:10.37,2013-02-08 21:59:00,
2013-02-09 09:04:00,73.9,65.5,30.02,North,0,4.6,4.6,75,0.00,CLR,,0.00,WeatherDisplay:10.37,2013-02-08 22:04:00,
2013-02-09 09:09:00,74.5,65.3,30.03,NNW,338,3.8,3.8,73,0.00,CLR,,0.00,WeatherDisplay:10.37,2013-02-08 22:09:00,
2013-02-09 09:14:00,75.0,65.4,30.03,North,0,6.9,6.9,72,0.00,CLR,,0.00,WeatherDisplay:10.37,2013-02-08 22:14:00,
2013-02-09 09:19:00,75.4,65.3,30.03,North,0,6.9,6.9,71,0.00,CLR,,0.00,WeatherDisplay:10.37,2013-02-08 22:19:00,
2013-02-09 09:24:00,75.9,65.4,30.03,NNE,22,4.6,4.6,70,0.00,CLR,,0.00,WeatherDisplay:10.37,2013-02-08 22:24:00,
2013-02-09 09:29:00,76.3,65.8,30.03,NNW,338,4.6,4.6,70,0.00,CLR,,0.00,WeatherDisplay:10.37,2013-02-08 22:29:00,
2013-02-09 09:34:00,76.6,66.1,30.03,East,90,5.8,5.8,70,0.00,CLR,,0.00,WeatherDisplay:10.37,2013-02-08 22:34:00,
2013-02-09 09:39:00,76.8,65.9,30.03,NNW,338,3.6,3.6,69,0.00,CLR,,0.00,WeatherDisplay:10.37,2013-02-08 22:39:00,
2013-02-09 09:44:00,77.2,66.2,30.03,NNE,22,8.1,8.1,69,0.00,CLR,,0.00,WeatherDisplay:10.37,2013-02-08 22:44:00,
2013-02-09 09:49:00,77.5,66.1,30.03,North,0,5.8,5.8,68,0.00,CLR,,0.00,WeatherDisplay:10.37,2013-02-08 22:49:00,
2013-02-09 09:54:00,77.9,66.1,30.03,East,90,5.8,5.8,67,0.00,CLR,,0.00,WeatherDisplay:10.37,2013-02-08 22:54:00,
2013-02-09 09:59:00,78.1,66.2,30.02,North,0,5.8,5.8,67,0.00,CLR,,0.00,WeatherDisplay:10.37,2013-02-08 22:59:00,
2013-02-09 10:04:00,78.6,66.3,30.02,East,90,4.6,4.6,66,0.00,CLR,,0.00,WeatherDisplay:10.37,2013-02-08 23:04:00,
2013-02-09 10:09:00,79.0,66.2,30.02,NNE,22,4.6,4.6,65,0.00,CLR,,0.00,WeatherDisplay:10.37,2013-02-08 23:09:00,
2013-02-09 10:14:00,79.2,66.4,30.02,East,90,3.5,3.5,65,0.00,CLR,,0.00,WeatherDisplay:10.37,2013-02-08 23:14:00,
2013-02-09 10:19:00,79.9,67.1,30.02,NE,45,6.9,6.9,65,0.00,CLR,,0.00,WeatherDisplay:10.37,2013-02-08 23:19:00,
2013-02-09 10:24:00,80.4,66.7,30.02,North,0,8.1,8.1,63,0.00,CLR,,0.00,WeatherDisplay:10.37,2013-02-08 23:24:00,
2013-02-09 10:29:00,81.1,66.9,30.02,NNE,22,4.7,4.7,62,0.00,CLR,,0.00,WeatherDisplay:10.37,2013-02-08 23:29:00,
2013-02-09 10:36:00,81.5,66.3,30.02,North,0,9.2,9.2,60,0.00,CLR,,0.00,WeatherDisplay:10.37,2013-02-08 23:36:00,
2013-02-09 10:41:00,81.9,66.6,30.01,North,0,5.8,6.0,60,0.00,CLR,,0.00,WeatherDisplay:10.37,2013-02-08 23:41:00,
2013-02-09 10:46:00,82.2,66.5,30.01,East,90,4.6,4.6,59,0.00,CLR,,0.00,WeatherDisplay:10.37,2013-02-08 23:46:00,
2013-02-09 10:51:00,82.8,67.0,30.02,North,0,2.3,2.3,59,0.00,CLR,,0.00,WeatherDisplay:10.37,2013-02-08 23:51:00,
2013-02-09 10:56:00,83.1,66.8,30.02,NE,45,5.6,5.6,58,0.00,CLR,,0.00,WeatherDisplay:10.37,2013-02-08 23:56:00,
2013-02-09 11:01:00,83.8,67.0,30.02,NNE,22,4.6,4.6,57,0.00,CLR,,0.00,WeatherDisplay:10.37,2013-02-09 00:01:00,
2013-02-09 11:06:00,84.4,67.0,30.02,North,0,3.1,3.1,56,0.00,CLR,,0.00,WeatherDisplay:10.37,2013-02-09 00:06:00,
2013-02-09 11:11:00,84.9,67.5,30.01,North,0,7.6,7.6,56,0.00,CLR,,0.00,WeatherDisplay:10.37,2013-02-09 00:11:00,
2013-02-09 11:16:00,85.6,67.1,30.01,NNW,338,5.8,5.8,54,0.00,CLR,,0.00,WeatherDisplay:10.37,2013-02-09 00:16:00,
2013-02-09 11:21:00,86.2,67.6,30.01,NW,315,5.8,5.8,54,0.00,CLR,,0.00,WeatherDisplay:10.37,2013-02-09 00:21:00,
2013-02-09 11:26:00,86.7,68.1,30.01,SW,225,3.5,3.5,54,0.00,CLR,,0.00,WeatherDisplay:10.37,2013-02-09 00:26:00,
2013-02-09 11:31:00,87.4,68.2,30.00,North,0,4.6,4.6,53,0.00,CLR,,0.00,WeatherDisplay:10.37,2013-02-09 00:31:00,
2013-02-09 11:36:00,87.6,67.3,30.00,ENE,68,4.6,4.6,51,0.00,CLR,,0.00,WeatherDisplay:10.37,2013-02-09 00:36:00,
2013-02-09 11:41:00,88.0,67.6,30.00,East,90,5.8,5.8,51,0.00,CLR,,0.00,WeatherDisplay:10.37,2013-02-09 00:41:00,
2013-02-09 11:46:00,88.3,66.8,30.00,NNW,338,3.8,3.8,49,0.00,CLR,,0.00,WeatherDisplay:10.37,2013-02-09 00:46:00,
2013-02-09 11:51:00,88.7,67.1,30.00,ENE,68,4.6,4.6,49,0.00,CLR,,0.00,WeatherDisplay:10.37,2013-02-09 00:51:00,
2013-02-09 11:56:00,89.2,67.0,30.00,North,0,6.9,6.9,48,0.00,CLR,,0.00,WeatherDisplay:10.37,2013-02-09 00:56:00,
2013-02-09 12:01:00,89.4,65.9,30.00,North,0,8.1,8.1,46,0.00,CLR,,0.00,WeatherDisplay:10.37,2013-02-09 01:01:00,
2013-02-09 12:06:00,89.8,66.2,30.00,East,91,3.5,3.5,46,0.00,CLR,,0.00,WeatherDisplay:10.37,2013-02-09 01:06:00,
2013-02-09 12:11:00,90.3,66.1,30.00,NNW,338,4.6,4.6,45,0.00,CLR,,0.00,WeatherDisplay:10.37,2013-02-09 01:11:00,
2013-02-09 12:16:00,91.0,66.7,29.99,SE,135,6.9,6.9,45,0.00,CLR,,0.00,WeatherDisplay:10.37,2013-02-09 01:16:00,
2013-02-09 12:21:00,91.8,66.7,29.99,NE,45,5.8,5.8,44,0.00,CLR,,0.00,WeatherDisplay:10.37,2013-02-09 01:21:00,
2013-02-09 12:26:00,91.9,66.2,29.99,West,270,6.9,6.9,43,0.00,CLR,,0.00,WeatherDisplay:10.37,2013-02-09 01:26:00,
2013-02-09 12:31:00,91.4,66.4,29.99,NW,315,5.8,5.8,44,0.00,CLR,,0.00,WeatherDisplay:10.37,2013-02-09 01:31:00,
2013-02-09 12:36:00,91.8,67.4,29.99,East,90,5.8,5.8,45,0.00,CLR,,0.00,WeatherDisplay:10.37,2013-02-09 01:36:00,
2013-02-09 12:41:00,92.3,66.6,29.99,North,0,8.1,8.1,43,0.00,CLR,,0.00,WeatherDisplay:10.37,2013-02-09 01:41:00,
2013-02-09 12:46:00,93.0,67.2,29.99,ENE,68,3.5,3.5,43,0.00,CLR,,0.00,WeatherDisplay:10.37,2013-02-09 01:46:00,
2013-02-09 12:51:00,92.8,66.4,29.98,North,0,4.6,4.6,42,0.00,CLR,,0.00,WeatherDisplay:10.37,2013-02-09 01:51:00,
2013-02-09 12:57:00,92.3,66.6,29.98,SE,135,6.9,6.9,43,0.00,CLR,,0.00,WeatherDisplay:10.37,2013-02-09 01:57:00,
2013-02-09 13:02:00,92.3,67.2,29.98,ESE,112,6.9,6.9,44,0.00,CLR,,0.00,WeatherDisplay:10.37,2013-02-09 02:02:00,
2013-02-09 13:07:00,92.8,67.7,29.97,ESE,112,2.7,2.7,44,0.00,CLR,,0.00,WeatherDisplay:10.37,2013-02-09 02:07:00,
2013-02-09 13:12:00,93.9,68.7,29.97,ENE,68,3.5,3.5,44,0.00,CLR,,0.00,WeatherDisplay:10.37,2013-02-09 02:12:00,
2013-02-09 13:17:00,95.2,68.5,29.97,North,1,0.0,0.0,42,0.00,CLR,,0.00,WeatherDisplay:10.37,2013-02-09 02:17:00,
2013-02-09 13:22:00,96.4,68.2,29.97,SSE,158,0.0,0.0,40,0.00,CLR,,0.00,WeatherDisplay:10.37,2013-02-09 02:22:00,
2013-02-09 13:27:00,97.3,69.0,29.97,West,270,0.0,0.0,40,0.00,CLR,,0.00,WeatherDisplay:10.37,2013-02-09 02:27:00,
2013-02-09 13:32:00,97.5,66.9,29.97,West,270,0.0,0.0,37,0.00,CLR,,0.00,WeatherDisplay:10.37,2013-02-09 02:32:00,
2013-02-09 13:37:00,97.5,67.6,29.96,ESE,112,0.0,0.0,38,0.00,CLR,,0.00,WeatherDisplay:10.37,2013-02-09 02:37:00,
2013-02-09 13:42:00,97.7,67.8,29.96,NE,45,0.0,0.0,38,0.00,CLR,,0.00,WeatherDisplay:10.37,2013-02-09 02:42:00,
2013-02-09 13:47:00,97.9,68.0,29.96,ENE,68,0.0,0.0,38,0.00,CLR,,0.00,WeatherDisplay:10.37,2013-02-09 02:47:00,
2013-02-09 13:52:00,98.4,67.7,29.95,ESE,112,0.0,0.0,37,0.00,CLR,,0.00,WeatherDisplay:10.37,2013-02-09 02:52:00,
2013-02-09 13:57:00,98.8,67.2,29.95,NNW,338,0.0,0.0,36,0.00,CLR,,0.00,WeatherDisplay:10.37,2013-02-09 02:57:00,
2013-02-09 14:02:00,99.0,67.3,29.95,NW,315,0.0,0.0,36,0.00,CLR,,0.00,WeatherDisplay:10.37,2013-02-09 03:02:00,
2013-02-09 14:07:00,98.6,67.8,29.95,NNE,22,0.0,0.0,37,0.00,CLR,,0.00,WeatherDisplay:10.37,2013-02-09 03:07:00,
2013-02-09 14:12:00,98.4,67.7,29.95,North,0,0.0,0.0,37,0.00,CLR,,0.00,WeatherDisplay:10.37,2013-02-09 03:12:00,
2013-02-09 14:17:00,98.8,68.0,29.95,NNE,22,0.0,0.0,37,0.00,CLR,,0.00,WeatherDisplay:10.37,2013-02-09 03:17:00,
2013-02-09 14:22:00,99.1,68.3,29.95,SE,135,0.0,0.0,37,0.00,CLR,,0.00,WeatherDisplay:10.37,2013-02-09 03:22:00,
2013-02-09 14:27:00,99.5,69.4,29.94,NE,45,0.0,0.0,38,0.00,CLR,,0.00,WeatherDisplay:10.37,2013-02-09 03:27:00,
2013-02-09 14:32:00,99.9,68.1,29.94,ESE,112,0.0,0.0,36,0.00,CLR,,0.00,WeatherDisplay:10.37,2013-02-09 03:32:00,
2013-02-09 14:37:00,100.0,67.5,29.94,ENE,68,0.0,0.0,35,0.00,CLR,,0.00,WeatherDisplay:10.37,2013-02-09 03:37:00,
2013-02-09 14:42:00,100.2,69.2,29.94,East,90,0.0,0.0,37,0.00,CLR,,0.00,WeatherDisplay:10.37,2013-02-09 03:42:00,
2013-02-09 14:47:00,100.6,68.8,29.93,NW,315,0.0,0.0,36,0.00,CLR,,0.00,WeatherDisplay:10.37,2013-02-09 03:47:00,
2013-02-09 14:52:00,101.1,68.4,29.93,West,270,0.0,0.0,35,0.00,CLR,,0.00,WeatherDisplay:10.37,2013-02-09 03:52:00,
2013-02-09 14:57:00,101.5,67.0,29.93,West,270,0.0,0.0,33,0.00,CLR,,0.00,WeatherDisplay:10.37,2013-02-09 03:57:00,
2013-02-09 15:02:00,102.0,67.5,29.93,SSE,158,0.0,0.0,33,0.00,CLR,,0.00,WeatherDisplay:10.37,2013-02-09 04:02:00,
2013-02-09 15:07:00,102.9,69.1,29.92,East,90,0.0,0.0,34,0.00,CLR,,0.00,WeatherDisplay:10.37,2013-02-09 04:07:00,
2013-02-09 15:12:00,103.3,67.7,29.92,East,90,0.0,0.0,32,0.00,CLR,,0.00,WeatherDisplay:10.37,2013-02-09 04:12:00,
2013-02-09 15:17:00,102.7,68.1,29.92,NNE,22,0.0,0.0,33,0.00,CLR,,0.00,WeatherDisplay:10.37,2013-02-09 04:17:00,
2013-02-09 15:22:00,102.4,66.9,29.91,East,90,0.0,0.0,32,0.00,CLR,,0.00,WeatherDisplay:10.37,2013-02-09 04:22:00,
2013-02-09 15:27:00,102.4,69.5,29.91,WSW,248,0.0,0.0,35,0.00,CLR,,0.00,WeatherDisplay:10.37,2013-02-09 04:27:00,
2013-02-09 15:32:00,102.4,68.7,29.91,NE,45,0.0,0.0,34,0.00,CLR,,0.00,WeatherDisplay:10.37,2013-02-09 04:32:00,
2013-02-09 15:37:00,102.4,69.5,29.91,East,90,0.0,0.0,35,0.00,CLR,,0.00,WeatherDisplay:10.37,2013-02-09 04:37:00,
2013-02-09 15:42:00,102.0,69.2,29.91,NNE,22,0.0,0.0,35,0.00,CLR,,0.00,WeatherDisplay:10.37,2013-02-09 04:42:00,
2013-02-09 15:47:00,101.5,69.6,29.90,ESE,112,0.0,0.0,36,0.00,CLR,,0.00,WeatherDisplay:10.37,2013-02-09 04:47:00,
2013-02-09 15:52:00,101.3,69.4,29.90,NE,45,10.4,10.4,36,0.00,CLR,,0.00,WeatherDisplay:10.37,2013-02-09 04:52:00,
2013-02-09 15:57:00,101.5,69.6,29.90,ENE,68,8.1,8.1,36,0.00,CLR,,0.00,WeatherDisplay:10.37,2013-02-09 04:57:00,
2013-02-09 16:00:00,101.3,69.4,29.89,SE,135,9.8,9.8,36,0.00,CLR,,0.00,WeatherDisplay:10.37,2013-02-09 05:00:00,
2013-02-09 16:05:00,100.9,69.1,29.89,ESE,112,4.7,4.7,36,0.00,CLR,,0.00,WeatherDisplay:10.37,2013-02-09 05:05:00,
2013-02-09 16:10:00,100.9,69.9,29.89,ESE,112,11.5,11.5,37,0.00,CLR,,0.00,WeatherDisplay:10.37,2013-02-09 05:10:00,
2013-02-09 16:15:00,100.8,68.9,29.89,ESE,112,6.9,6.9,36,0.00,CLR,,0.00,WeatherDisplay:10.37,2013-02-09 05:15:00,
2013-02-09 16:20:00,100.6,68.8,29.89,East,90,9.4,9.4,36,0.00,CLR,,0.00,WeatherDisplay:10.37,2013-02-09 05:20:00,
2013-02-09 16:25:00,100.4,70.2,29.89,ESE,112,9.2,9.2,38,0.00,CLR,,0.00,WeatherDisplay:10.37,2013-02-09 05:25:00,
2013-02-09 16:30:00,100.2,70.0,29.89,NE,45,9.2,9.2,38,0.00,CLR,,0.00,WeatherDisplay:10.37,2013-02-09 05:30:00,
2013-02-09 16:35:00,100.2,70.0,29.89,ESE,112,11.5,11.5,38,0.00,CLR,,0.00,WeatherDisplay:10.37,2013-02-09 05:35:00,
2013-02-09 16:40:00,99.9,70.5,29.89,ESE,112,3.5,3.5,39,0.00,CLR,,0.00,WeatherDisplay:10.37,2013-02-09 05:40:00,
2013-02-09 16:45:00,99.5,70.2,29.89,East,90,8.1,8.1,39,0.00,CLR,,0.00,WeatherDisplay:10.37,2013-02-09 05:45:00,
2013-02-09 16:50:00,99.1,69.8,29.89,NNE,22,8.1,8.1,39,0.00,CLR,,0.00,WeatherDisplay:10.37,2013-02-09 05:50:00,
2013-02-09 16:55:00,99.0,70.4,29.88,East,90,13.8,13.8,40,0.00,CLR,,0.00,WeatherDisplay:10.37,2013-02-09 05:55:00,
2013-02-09 17:00:00,98.8,70.3,29.88,ESE,112,11.4,11.4,40,0.00,CLR,,0.00,WeatherDisplay:10.37,2013-02-09 06:00:00,
2013-02-09 17:05:00,98.2,69.8,29.88,East,90,10.4,10.4,40,0.00,CLR,,0.00,WeatherDisplay:10.37,2013-02-09 06:05:00,
2013-02-09 17:10:00,97.9,70.2,29.88,East,90,9.2,9.2,41,0.00,CLR,,0.00,WeatherDisplay:10.37,2013-02-09 06:10:00,
2013-02-09 17:15:00,97.3,69.7,29.87,East,90,9.2,9.2,41,0.00,CLR,,0.00,WeatherDisplay:10.37,2013-02-09 06:15:00,
2013-02-09 17:20:00,96.4,69.6,29.87,East,90,15.0,15.0,42,0.00,CLR,,0.00,WeatherDisplay:10.37,2013-02-09 06:20:00,
2013-02-09 17:25:00,94.8,68.8,29.87,East,90,9.2,9.2,43,0.00,CLR,,0.00,WeatherDisplay:10.37,2013-02-09 06:25:00,
2013-02-09 17:30:00,93.7,68.5,29.87,ESE,112,10.5,10.5,44,0.00,CLR,,0.00,WeatherDisplay:10.37,2013-02-09 06:30:00,
2013-02-09 17:35:00,93.0,69.2,29.86,ESE,112,6.9,6.9,46,0.00,CLR,,0.00,WeatherDisplay:10.37,2013-02-09 06:35:00,
2013-02-09 17:40:00,93.0,69.8,29.86,ENE,68,12.1,12.1,47,0.00,CLR,,0.00,WeatherDisplay:10.37,2013-02-09 06:40:00,
2013-02-09 17:45:00,93.0,69.8,29.86,ENE,68,6.9,6.9,47,0.00,CLR,,0.00,WeatherDisplay:10.37,2013-02-09 06:45:00,
2013-02-09 17:50:00,92.1,69.0,29.86,ENE,68,9.2,9.2,47,0.00,CLR,,0.00,WeatherDisplay:10.37,2013-02-09 06:50:00,
2013-02-09 17:55:00,91.4,69.0,29.86,East,90,6.9,6.9,48,0.00,CLR,,0.00,WeatherDisplay:10.37,2013-02-09 06:55:00,
2013-02-09 18:00:00,90.7,68.9,29.86,ENE,68,9.2,9.2,49,0.00,CLR,,0.00,WeatherDisplay:10.37,2013-02-09 07:00:00,
2013-02-09 18:05:00,89.8,69.2,29.87,ENE,68,9.2,9.2,51,0.00,CLR,,0.00,WeatherDisplay:10.37,2013-02-09 07:05:00,
2013-02-09 18:11:00,89.4,68.9,29.88,NE,45,10.4,10.4,51,0.00,CLR,,0.00,WeatherDisplay:10.37,2013-02-09 07:11:00,
2013-02-09 18:16:00,88.9,69.0,29.88,NNE,22,8.1,8.1,52,0.00,CLR,,0.00,WeatherDisplay:10.37,2013-02-09 07:16:00,
2013-02-09 18:21:00,88.3,69.0,29.87,ESE,112,5.8,5.8,53,0.00,CLR,,0.00,WeatherDisplay:10.37,2013-02-09 07:21:00,
2013-02-09 18:26:00,88.0,68.7,29.86,ESE,112,4.6,4.6,53,0.00,CLR,,0.00,WeatherDisplay:10.37,2013-02-09 07:26:00,
2013-02-09 18:31:00,87.4,68.8,29.86,North,0,3.5,3.5,54,0.00,CLR,,0.00,WeatherDisplay:10.37,2013-02-09 07:31:00,
2013-02-09 18:36:00,87.1,69.0,29.86,ESE,112,3.5,3.5,55,0.00,CLR,,0.00,WeatherDisplay:10.37,2013-02-09 07:36:00,
2013-02-09 18:41:00,86.9,68.8,29.86,ENE,68,3.5,3.5,55,0.00,CLR,,0.00,WeatherDisplay:10.37,2013-02-09 07:41:00,
2013-02-09 18:46:00,86.5,68.5,29.86,East,90,5.8,5.8,55,0.00,CLR,,0.00,WeatherDisplay:10.37,2013-02-09 07:46:00,
2013-02-09 18:51:00,86.2,68.6,29.86,SSE,158,4.6,4.6,56,0.00,CLR,,0.00,WeatherDisplay:10.37,2013-02-09 07:51:00,
2013-02-09 18:56:00,85.6,68.7,29.87,NNE,22,5.8,5.8,57,0.00,CLR,,0.00,WeatherDisplay:10.37,2013-02-09 07:56:00,
2013-02-09 19:01:00,85.1,68.7,29.87,ENE,68,5.8,5.8,58,0.00,CLR,,0.00,WeatherDisplay:10.37,2013-02-09 08:01:00,
2013-02-09 19:06:00,84.7,68.3,29.87,East,90,6.9,6.9,58,0.00,CLR,,0.00,WeatherDisplay:10.37,2013-02-09 08:06:00,
2013-02-09 19:11:00,84.6,68.7,29.87,ENE,68,6.9,6.9,59,0.00,CLR,,0.00,WeatherDisplay:10.37,2013-02-09 08:11:00,
2013-02-09 19:16:00,84.2,68.3,29.87,NNE,22,8.1,8.1,59,0.00,CLR,,0.00,WeatherDisplay:10.37,2013-02-09 08:16:00,
2013-02-09 19:21:00,84.0,68.1,29.88,NW,315,3.5,3.5,59,0.00,CLR,,0.00,WeatherDisplay:10.37,2013-02-09 08:21:00,
2013-02-09 19:26:00,83.8,68.5,29.88,NE,45,3.5,3.5,60,0.00,CLR,,0.00,WeatherDisplay:10.37,2013-02-09 08:26:00,
2013-02-09 19:31:00,83.3,68.0,29.88,NE,45,8.1,8.1,60,0.00,CLR,,0.00,WeatherDisplay:10.37,2013-02-09 08:31:00,
2013-02-09 19:36:00,82.9,68.1,29.88,NE,45,2.3,2.3,61,0.00,CLR,,0.00,WeatherDisplay:10.37,2013-02-09 08:36:00,
2013-02-09 19:41:00,82.8,67.9,29.88,NNE,22,4.6,4.6,61,0.00,CLR,,0.00,WeatherDisplay:10.37,2013-02-09 08:41:00,
2013-02-09 19:46:00,82.2,67.4,29.88,ENE,68,3.5,3.5,61,0.00,CLR,,0.00,WeatherDisplay:10.37,2013-02-09 08:46:00,
2013-02-09 19:51:00,82.2,67.9,29.88,ESE,112,2.3,2.3,62,0.00,CLR,,0.00,WeatherDisplay:10.37,2013-02-09 08:51:00,
2013-02-09 19:56:00,82.0,67.7,29.89,East,90,3.8,3.8,62,0.00,CLR,,0.00,WeatherDisplay:10.37,2013-02-09 08:56:00,
2013-02-09 20:01:00,81.7,67.4,29.89,NE,45,4.6,4.6,62,0.00,CLR,,0.00,WeatherDisplay:10.37,2013-02-09 09:01:00,
2013-02-09 20:06:00,81.3,67.5,29.89,ENE,68,6.9,6.9,63,0.00,CLR,,0.00,WeatherDisplay:10.37,2013-02-09 09:06:00,
2013-02-09 20:11:00,81.3,67.5,29.89,East,90,2.3,2.3,63,0.00,CLR,,0.00,WeatherDisplay:10.37,2013-02-09 09:11:00,
2013-02-09 20:16:00,81.1,67.8,29.89,ESE,112,3.5,3.5,64,0.00,CLR,,0.00,WeatherDisplay:10.37,2013-02-09 09:16:00,
2013-02-09 20:21:00,81.0,67.6,29.89,ENE,68,3.5,3.5,64,0.00,CLR,,0.00,WeatherDisplay:10.37,2013-02-09 09:21:00,
2013-02-09 20:26:00,80.8,67.5,29.90,East,90,2.3,2.3,64,0.00,CLR,,0.00,WeatherDisplay:10.37,2013-02-09 09:26:00,
2013-02-09 20:31:00,80.6,67.7,29.90,East,90,1.3,0.0,65,0.00,CLR,,0.00,WeatherDisplay:10.37,2013-02-09 09:31:00,
2013-02-09 20:36:00,80.4,67.6,29.90,NNE,22,3.5,3.5,65,0.00,CLR,,0.00,WeatherDisplay:10.37,2013-02-09 09:36:00,
2013-02-09 20:41:00,80.2,67.4,29.90,North,0,1.1,1.1,65,0.00,CLR,,0.00,WeatherDisplay:10.37,2013-02-09 09:41:00,
2013-02-09 20:46:00,79.9,67.5,29.91,SSW,202,0.0,0.0,66,0.00,CLR,,0.00,WeatherDisplay:10.37,2013-02-09 09:46:00,
2013-02-09 20:51:00,79.7,67.3,29.91,ESE,112,2.2,2.2,66,0.00,CLR,,0.00,WeatherDisplay:10.37,2013-02-09 09:51:00,
2013-02-09 20:56:00,79.5,67.2,29.91,East,90,1.3,1.3,66,0.00,CLR,,0.00,WeatherDisplay:10.37,2013-02-09 09:56:00,
2013-02-09 21:01:00,79.3,67.4,29.91,ENE,68,2.3,2.3,67,0.00,CLR,,0.00,WeatherDisplay:10.37,2013-02-09 10:01:00,
2013-02-09 21:06:00,79.3,67.4,29.92,East,90,0.0,0.0,67,0.00,CLR,,0.00,WeatherDisplay:10.37,2013-02-09 10:06:00,
2013-02-09 21:11:00,79.3,67.4,29.92,ENE,68,1.1,0.0,67,0.00,CLR,,0.00,WeatherDisplay:10.37,2013-02-09 10:11:00,
2013-02-09 21:16:00,79.2,67.3,29.92,North,0,3.5,3.5,67,0.00,CLR,,0.00,WeatherDisplay:10.37,2013-02-09 10:16:00,
2013-02-09 21:21:00,79.0,67.1,29.92,ENE,68,2.3,2.3,67,0.00,CLR,,0.00,WeatherDisplay:10.37,2013-02-09 10:21:00,
2013-02-09 21:26:00,78.8,67.3,29.92,ENE,68,2.3,2.3,68,0.00,CLR,,0.00,WeatherDisplay:10.37,2013-02-09 10:26:00,
2013-02-09 21:31:00,78.6,67.2,29.92,NE,45,0.9,0.0,68,0.00,CLR,,0.00,WeatherDisplay:10.37,2013-02-09 10:31:00,
2013-02-09 21:36:00,78.4,67.0,29.93,NNE,22,1.1,1.1,68,0.00,CLR,,0.00,WeatherDisplay:10.37,2013-02-09 10:36:00,
2013-02-09 21:41:00,78.4,67.4,29.93,ENE,68,3.5,3.5,69,0.00,CLR,,0.00,WeatherDisplay:10.37,2013-02-09 10:41:00,
2013-02-09 21:46:00,78.1,67.1,29.93,East,90,2.3,2.3,69,0.00,CLR,,0.00,WeatherDisplay:10.37,2013-02-09 10:46:00,
2013-02-09 21:51:00,78.1,67.1,29.93,ENE,68,3.4,3.4,69,0.00,CLR,,0.00,WeatherDisplay:10.37,2013-02-09 10:51:00,
2013-02-09 21:56:00,77.9,67.3,29.93,East,90,3.5,3.5,70,0.00,CLR,,0.00,WeatherDisplay:10.37,2013-02-09 10:56:00,
2013-02-09 22:01:00,77.9,67.3,29.93,East,90,2.3,2.3,70,0.00,CLR,,0.00,WeatherDisplay:10.37,2013-02-09 11:01:00,
2013-02-09 22:06:00,77.5,67.0,29.93,NE,45,3.4,3.4,70,0.00,CLR,,0.00,WeatherDisplay:10.37,2013-02-09 11:06:00,
2013-02-09 22:11:00,77.5,67.0,29.93,ESE,112,1.1,1.1,70,0.00,CLR,,0.00,WeatherDisplay:10.37,2013-02-09 11:11:00,
2013-02-09 22:16:00,77.4,66.8,29.93,North,0,3.5,3.5,70,0.00,CLR,,0.00,WeatherDisplay:10.37,2013-02-09 11:16:00,
2013-02-09 22:21:00,77.2,66.6,29.93,North,0,0.7,0.0,70,0.00,CLR,,0.00,WeatherDisplay:10.37,2013-02-09 11:21:00,
2013-02-09 22:26:00,77.0,66.9,29.93,NE,45,1.1,1.1,71,0.00,CLR,,0.00,WeatherDisplay:10.37,2013-02-09 11:26:00,
2013-02-09 22:31:00,76.8,66.7,29.93,North,0,0.0,0.0,71,0.00,CLR,,0.00,WeatherDisplay:10.37,2013-02-09 11:31:00,
2013-02-09 22:36:00,76.6,66.5,29.93,NE,45,1.6,1.6,71,0.00,CLR,,0.00,WeatherDisplay:10.37,2013-02-09 11:36:00,
2013-02-09 22:41:00,76.5,66.8,29.93,ENE,68,2.3,2.3,72,0.00,CLR,,0.00,WeatherDisplay:10.37,2013-02-09 11:41:00,
2013-02-09 22:46:00,76.5,66.8,29.93,NE,45,3.5,3.5,72,0.00,CLR,,0.00,WeatherDisplay:10.37,2013-02-09 11:46:00,
2013-02-09 22:51:00,76.5,66.8,29.93,SE,135,1.6,1.6,72,0.00,CLR,,0.00,WeatherDisplay:10.37,2013-02-09 11:51:00,
2013-02-09 22:56:00,76.5,66.8,29.93,ESE,112,3.5,3.5,72,0.00,CLR,,0.00,WeatherDisplay:10.37,2013-02-09 11:56:00,
2013-02-09 23:01:00,76.3,66.6,29.93,ESE,112,0.0,0.0,72,0.00,CLR,,0.00,WeatherDisplay:10.37,2013-02-09 12:01:00,
2013-02-09 23:06:00,76.3,66.6,29.93,NNE,22,1.1,1.1,72,0.00,CLR,,0.00,WeatherDisplay:10.37,2013-02-09 12:06:00,
2013-02-09 23:11:00,76.1,66.4,29.93,ENE,68,2.3,2.3,72,0.00,CLR,,0.00,WeatherDisplay:10.37,2013-02-09 12:11:00,
2013-02-09 23:16:00,75.9,66.6,29.94,NE,45,1.1,0.0,73,0.00,CLR,,0.00,WeatherDisplay:10.37,2013-02-09 12:16:00,
2013-02-09 23:21:00,75.9,66.6,29.93,NE,45,2.3,0.0,73,0.00,CLR,,0.00,WeatherDisplay:10.37,2013-02-09 12:21:00,
2013-02-09 23:26:00,75.7,66.5,29.94,NW,315,1.1,1.1,73,0.00,CLR,,0.00,WeatherDisplay:10.37,2013-02-09 12:26:00,
2013-02-09 23:31:00,75.6,66.3,29.94,SE,135,0.0,0.0,73,0.00,CLR,,0.00,WeatherDisplay:10.37,2013-02-09 12:31:00,
2013-02-09 23:36:00,75.6,66.3,29.94,ESE,112,0.0,0.0,73,0.00,CLR,,0.00,WeatherDisplay:10.37,2013-02-09 12:36:00,
2013-02-09 23:41:00,75.4,66.1,29.94,WSW,248,0.0,0.0,73,0.00,CLR,,0.00,WeatherDisplay:10.37,2013-02-09 12:41:00,
2013-02-09 23:46:00,75.4,66.1,29.95,ENE,68,0.0,0.0,73,0.00,CLR,,0.00,WeatherDisplay:10.37,2013-02-09 12:46:00,
2013-02-09 23:51:00,75.0,65.8,29.94,ESE,112,0.0,0.0,73,0.00,CLR,,0.00,WeatherDisplay:10.37,2013-02-09 12:51:00,
2013-02-09 23:56:00,75.0,65.8,29.94,SE,135,0.0,0.0,73,0.00,CLR,,0.00,WeatherDisplay:10.37,2013-02-09 12:56:00,